Location: Hall+in+Tirol
(47.2830°N, 11.5170°E)
Time: 10:46:31
(UTC+01:00)

Daily predictions for brighter satellites

Satellite Brightness Start Highest point End
(mag) Time Altitude Azimuth Time Altitude Azimuth Time Altitude Azimuth
NOSS 3-2 (A) 4.5 17:21:11 10° WSW 17:27:07 43° NW 17:33:40 10° NE
Cosmos 1763 Rocket 3.6 17:23:16 10° S 17:28:23 59° ESE 17:33:28 10° NNE
COSMO-SKYMED 1 3.8 17:27:54 10° NE 17:31:17 22° E 17:34:39 10° SE
In-Cosmos 22 4.4 17:26:13 10° SSW 17:31:34 75° WNW 17:37:07 10° N
NOSS 3-2 (C) 4.3 17:26:10 10° WSW 17:32:10 48° NW 17:38:49 10° NE
MSX 3.8 17:28:36 10° SSE 17:34:14 66° ENE 17:39:56 10° N
YAOGAN 1 2.5 17:30:37 10° SSE 17:34:55 71° ENE 17:39:15 10° N
Cosmos 1726 2.9 17:31:35 10° N 17:34:58 30° ENE 17:38:21 10° SE
Resurs 01 Rocket 3.5 17:35:50 10° ENE 17:36:24 10° NE 17:36:59 10° NE
Cosmos 1844 Rocket 2.9 17:30:46 10° NNW 17:36:28 80° WSW 17:42:06 10° SSE
USA 116 3.3 17:34:07 10° NNE 17:37:19 54° E 17:40:21 10° S
ALOS 4.0 17:35:48 10° ENE 17:37:31 12° NE 17:39:14 10° NE
Cosmos 2322 4.3 17:31:56 10° SW 17:37:32 61° WNW 17:43:13 10° NNE
SL-14 R/B 4.4 17:36:39 10° SE 17:39:48 23° E 17:42:59 10° NE
Cosmos 1408 Rocket 3.9 17:37:33 10° SSW 17:41:59 71° W 17:46:25 10° N
SL-16 R/B 4.0 17:37:55 10° WSW 17:42:35 26° NW 17:47:17 10° N
Cosmos 1300 3.2 17:39:29 10° N 17:43:04 37° ENE 17:46:38 10° SE
Cosmos 2228 Rocket 3.1 17:39:10 10° N 17:43:36 87° E 17:48:03 10° S
Cosmos 540 Rocket 4.3 17:39:40 10° SSE 17:44:08 30° E 17:48:36 10° NE
Aureole 2 Rocket 4.4 17:42:03 10° SE 17:44:17 15° E 17:46:26 11° ENE
Cosmos 1484 Rocket 3.1 17:40:36 10° SE 17:44:22 46° ENE 17:48:14 10° N
Cosmos 371 Rocket 3.6 17:43:48 10° S 17:48:24 46° ESE 17:53:00 10° NNE
OTV 4 3.4 17:48:06 10° SW 17:49:13 12° SSW 17:50:19 10° S
MOS 1 4.5 17:44:02 10° SSE 17:49:41 80° WSW 17:55:24 10° NNW
Tsikada Rocket 4.2 17:44:44 10° S 17:51:08 81° W 17:57:37 10° N
Cosmos 2333 4.2 17:46:32 10° SSW 17:52:08 85° ESE 17:57:47 10° NNE
Cosmos 2360 Rocket 3.3 17:50:54 10° SW 17:56:12 41° NW 18:01:31 10° NNE
CENTAUR R/B 2.7 17:50:03 10° SW 17:56:14 83° NW 18:03:20 10° NE
SMAP 3.6 17:51:49 10° S 17:56:26 63° WSW 18:01:04 10° NNW
Meteor 2-10 4.3 17:52:21 10° N 17:57:12 43° ENE 18:02:08 10° SE
Cosmos 1980 4.1 17:53:53 10° S 17:59:13 45° ESE 18:04:37 10° NE
MONITOR-E 4.1 17:57:53 10° SSE 18:01:02 77° ENE 18:04:13 10° N
Cosmos 2151 3.3 17:58:43 10° SSE 18:02:42 43° E 18:06:41 10° NNE
Cosmos 1328 Rocket 4.3 18:00:59 10° NNW 18:05:23 59° W 18:09:45 10° S
Cosmos 1743 Rocket 3.7 18:00:58 10° S 18:05:26 82° W 18:09:58 10° N
Meteor 1-28 Rocket 3.9 18:04:59 10° NNE 18:08:22 32° E 18:11:43 10° SSE
Cosmos 44 Rocket 3.4 18:03:35 10° SSW 18:08:40 68° ESE 18:13:08 13° NE
Lacrosse 5 rocket 1.1 18:05:38 10° NW 18:09:23 86° NE 18:13:20 10° SE
Cosmos 1125 Rocket 3.5 18:04:13 10° NNW 18:09:27 86° WSW 18:14:39 10° SSE
Cosmos 1634 Rocket 4.0 18:04:25 10° N 18:10:39 88° W 18:16:49 10° S
ATLAS 5 CENTAUR R/B 4.0 18:07:27 10° NNW 18:10:47 16° N 18:13:40 12° NE
METEOR-M 4.4 18:06:37 10° SE 18:11:39 44° ENE 18:16:42 10° N
Thor Agena Rocket 3.7 18:06:48 10° NNE 18:12:05 82° WNW 18:17:17 10° SSW
Cosmos 1515 Rocket 4.1 18:10:01 10° NNW 18:14:26 63° W 18:18:50 10° S
Cosmos 2333 Rocket 2.2 18:09:52 10° SSW 18:15:27 69° ESE 18:21:06 10° NNE
Cosmos 1151 Rocket 3.0 18:12:12 10° N 18:16:31 86° W 18:20:48 10° S
Transit 2A Rocket 4.4 18:12:24 10° NNW 18:16:48 81° ENE 18:21:06 10° SE
NOSS 0 Rocket 3.9 18:13:19 10° SSW 18:19:29 69° ESE 18:25:40 10° NNE
SKYMED 2 3.5 18:15:18 10° NNE 18:19:39 65° ESE 18:23:57 10° S
Lacrosse 5 3.1 18:17:20 10° WNW 18:21:49 30° NNW 18:25:04 16° NE
Cosmos 2219 Rocket 2.2 18:16:15 10° SSW 18:21:54 86° WNW 18:27:35 10° NNE
Spot 2 Rocket 4.3 18:17:55 10° ESE 18:22:11 28° ENE 18:26:26 10° N
CZ-4 R/B 3.9 18:19:10 10° SSW 18:22:22 24° W 18:25:37 10° NW
Cosmos 841 Rocket 4.1 18:18:36 10° SW 18:23:49 60° WNW 18:29:03 10° NNE
Cosmos 1805 Rocket 4.1 18:20:28 10° SSE 18:24:31 35° E 18:27:51 14° NNE
CZ-4C R/B 4.2 18:21:29 10° NW 18:25:59 20° N 18:29:26 14° NE
Cosmos 2278 Rocket 2.5 18:21:49 10° NNW 18:27:29 71° WSW 18:33:07 10° SSE
Cosmos 1328 3.9 18:24:15 10° SSW 18:28:11 76° W 18:32:10 10° N
FREGAT/IRIS 3.1 18:27:03 10° SE 18:29:55 38° ENE 18:32:48 10° N
Cosmos 1943 Rocket 4.2 18:29:29 10° NNE 18:30:05 10° NNE 18:30:05 10° NNE
Cosmos 304 Rocket 4.3 18:25:54 10° S 18:30:17 37° ESE 18:32:26 24° NE
Cosmos 1500 Rocket 4.1 18:27:30 10° SSW 18:31:47 60° WNW 18:36:08 10° N
Cosmos 1900 4.3 18:27:00 10° NNW 18:31:54 61° NE 18:36:32 12° SE
NOAA 12 4.0 18:27:14 10° SSE 18:32:26 69° ENE 18:37:40 10° N
Meteor 1-27 4.3 18:29:56 10° NNW 18:35:46 89° W 18:41:37 10° S
BREEZE M DEB (TANK) 2.5 18:34:31 10° WNW 18:37:12 38° SSW 18:37:58 26° SSE
Lacrosse 4 Rocket 2.4 18:37:31 10° NNW 18:40:35 27° NE 18:40:35 27° NE
SJ-6B 2.8 18:38:22 10° SSE 18:42:24 66° ENE 18:46:32 10° N
Sich 1 3.5 18:40:38 10° SSE 18:44:43 37° E 18:45:05 37° E
Cosmos 2084 3.5 18:44:36 10° SW 18:48:25 59° NW 18:50:01 31° NNE
Cosmos 1633 Rocket 3.7 18:46:15 10° SSE 18:49:38 35° ESE 18:49:38 35° ESE
Cosmos 1703 3.1 18:47:16 10° S 18:51:07 63° E 18:52:25 38° NNE
Cosmos 2237 Rocket 2.3 18:49:35 10° SSW 18:55:12 78° WNW 18:59:45 16° NNE
Cosmos 1626 2.4 18:53:21 10° S 18:56:25 49° SE 18:56:25 49° SE
COSMOS 2428 4.3 18:51:58 10° WSW 18:57:04 32° NW 19:02:09 10° NNE
Cosmos 2369 Rocket 3.5 18:52:55 10° N 18:56:36 22° NNE 18:56:36 22° NNE
Abrixas 3.9 18:55:43 10° SW 18:57:38 28° S 18:57:38 28° S
Cosmos 1455 2.1 18:55:51 10° N 18:59:15 60° NE 18:59:15 60° NE
Cosmos 1461 3.5 18:56:34 10° S 18:59:57 39° SE 18:59:57 39° SE
Cosmos 2279 Rocket 4.4 18:54:41 10° NNW 19:00:50 63° W 19:06:57 10° S
SL-16 R/B 2.2 18:55:40 10° S 19:01:10 56° ESE 19:03:05 38° NE
USA 215 3.6 18:56:41 10° SE 19:03:10 64° SW 19:09:42 10° WNW
ATLAS 3B R/B 4.2 18:58:51 10° NW 19:04:04 21° N 19:06:31 17° NNE
Cosmos 2058 3.6 19:00:24 10° SSW 19:04:25 53° WNW 19:08:27 10° N
COSMO-SKYMED 1 3.8 19:03:31 10° N 19:07:37 41° WNW 19:11:42 10° SW
Cosmos 2297 4.0 19:02:56 10° NNW 19:08:38 70° WSW 19:14:18 10° SSE
Cosmos 1707 Rocket 3.7 19:05:30 10° NNW 19:09:50 74° W 19:14:09 10° S
Aureole 1 Rocket 4.2 19:06:11 10° S 19:11:13 43° E 19:11:13 43° E
Cosmos 1340 Rocket 3.3 19:07:32 10° SSW 19:11:25 57° WNW 19:13:42 23° N
SL-19 R/B 4.3 19:05:45 10° SSE 19:11:39 89° ENE 19:17:17 10° NNW
Resurs 01 Rocket 1.5 19:10:33 40° SSE 19:12:04 73° ENE 19:16:32 10° N
ALOS 2.1 19:09:31 10° SSE 19:14:11 80° ENE 19:18:53 10° N
Cosmos 44 3.8 19:09:25 10° SW 19:14:35 60° NW 19:16:40 34° NNE
Aureole 2 Rocket 3.5 19:15:36 10° SW 19:19:16 50° WNW 19:20:20 38° NNW
Resurs 1-3 4.2 19:21:23 44° N 19:21:23 44° N 19:24:30 10° N
Orbus 7S? 4.2 19:16:32 10° NW 19:20:33 84° NE 19:23:24 38° ESE
Cosmos 1666 Rocket 3.5 19:19:03 10° S 19:23:23 83° W 19:23:48 72° NNW
Nadezhda 4 Rocket 3.9 19:18:07 10° S 19:24:22 88° E 19:30:45 10° N
Cosmos 1356 Rocket 3.7 19:23:07 10° SSW 19:26:27 58° SW 19:26:27 58° SW
FENGYUN 3A 4.0 19:38:04 10° S 19:43:22 62° WSW 19:48:43 10° NNW
Cosmos 1092 Rocket 3.9 19:37:07 10° S 19:43:28 89° E 19:49:52 10° N
USA 229 DEB 3.9 19:38:53 10° SSW 19:44:36 51° SSE 19:44:36 51° SSE
USA 229 3.9 19:39:00 10° SSW 19:44:39 50° SSE 19:44:39 50° SSE
CENTAUR R/B 4.1 19:42:18 10° W 19:48:00 30° NNW 19:51:09 22° NNE
Lacrosse 5 rocket 4.0 19:45:54 10° W 19:48:10 15° SW 19:49:55 12° SSW
ATLAS 5 CENTAUR R/B 3.7 19:52:10 10° NNW 19:55:14 25° N 19:55:14 25° N
Cosmos 2333 Rocket 4.1 19:55:40 10° W 20:00:16 25° NW 20:03:20 16° N
Lacrosse 5 3.6 20:01:33 10° NW 20:04:17 24° NNW 20:04:17 24° NNW
Cosmos 2219 Rocket 4.4 20:02:45 10° W 20:06:43 19° NW 20:09:45 13° N
BREEZE-M DEB (TANK) 4.2 19:57:21 10° W 20:10:45 74° NW 20:10:45 74° NW
Cosmos 1943 Rocket 4.3 20:10:26 10° NNW 20:11:38 16° N 20:11:38 16° N
CZ-4C R/B 3.9 20:10:31 10° NNW 20:14:38 30° N 20:14:38 30° N
Lacrosse 4 Rocket 4.1 20:16:05 10° NW 20:16:59 15° NW 20:16:59 15° NW
Cosmos 2237 Rocket 4.4 20:36:29 10° W 20:40:16 18° NW 20:41:37 17° NNW
Cosmos 2369 Rocket 4.1 20:36:22 10° NNW 20:38:25 23° NNW 20:38:25 23° NNW
SL-16 R/B 3.9 20:40:43 10° WSW 20:45:01 29° WNW 20:45:01 29° WNW
ATLAS 3B R/B 4.4 20:50:42 10° NNW 20:53:46 23° NNW 20:53:46 23° NNW
